Weather Roundup
Issued by NWS Corpus Christi, TX

Home | Current Version | Previous Version | Text Only | Print | Product List | Glossary On
Versions: 1 2 3 4 5 6 7 8 9 10 11 12 13 14 15 16 17 18 19 20 21 22 23 24 25 26 27 28 29 30 31 32 33 34 35 36 37 38 39 40 41 42 43 44 45 46 47 48 49 50
000
ASUS44 KCRP 261010
HRRCRP

SOUTH TEXAS REGIONAL WEATHER ROUNDUP
NATIONAL WEATHER SERVICE CORPUS CHRISTI TX
500 AM CDT MON JUN 26 2017


TXZ229>244-261100-
...CORPUS CHRISTI AREA OBSERVATIONS...

CITY           SKY/WX    TMP DP  RH WIND       PRES   REMARKS
CORPUS CHRISTI PTCLDY    79  75  87 E7        30.03F
NAS CORPUS CHR MOCLDY    80  74  81 E12       30.03S
ROCKPORT       PTCLDY    81  73  76 E8        30.02F
KINGSVILLE NAS PTCLDY    76  76 100 NW3       30.03S
ALICE          PTCLDY    75  73  93 N6        30.04S
ORANGE GROVE   PTCLDY    76  76 100 N5        30.05F
FALFURRIAS     CLEAR     75  74  95 CALM      30.03S
$$

...VICTORIA AREA OBSERVATIONS...

CITY           SKY/WX    TMP DP  RH WIND       PRES   REMARKS
VICTORIA       PTCLDY    76  73  91 E3        30.06F
BEEVILLE       MOCLDY   N/A N/A N/A NE3       30.06S
PLEASANTON     CLEAR     73  72  95 CALM      30.09F
SAN ANTONIO    MOCLDY    73  70  90 N6        30.11F
$$

...LAREDO AREA OBSERVATIONS...

CITY           SKY/WX    TMP DP  RH WIND       PRES   REMARKS
LAREDO         PTCLDY    75  73  93 NE9       30.07R
COTULLA        PTCLDY    74  72  93 E5        30.07F
DEL RIO        PTCLDY    73  69  87 E6        30.10S
MCALLEN        CLEAR     80  75  84 NE5       30.01S
HEBBRONVILLE   CLOUDY    74  72  95 CALM      30.07S
$$

...OTHER TEXAS OBSERVATIONS...

CITY           SKY/WX    TMP DP  RH WIND       PRES   REMARKS
BROWNSVILLE    CLEAR     76  74  93 NW3       30.00S
HOUSTON        MOCLDY    74  70  87 NE7       30.09F
COL. STATION   MOCLDY    72  72 100 NE3       30.11S
AUSTIN         CLOUDY    75  73  93 N9        30.11F
WACO           CLOUDY    74  73  97 E5        30.12S
FORT WORTH     CLOUDY    73  65  75 SE7       30.12F
WICHITA FALLS  CLOUDY    68  61  78 S5        30.15S
LUBBOCK        LGT RAIN  61  60  97 NE17      30.22F FOG
EL PASO        CLOUDY    73  64  73 E7        30.18R
$$

...MARINE OBSERVATIONS...

STATION/POSITION TIME  SKY/WX   TEMP    WIND        PRES    VSBY  WAVE   SWELL
                                AIR SEA DIR/SP/G                  HT/PER HT/PER
                 (UTC)          (F)     (DEG/KT/KT) (MB)    (MI)  (FT/S) (FT/S)
PORT ARANSAS     1000            81 84  100/  4/  5 1016.7F
BUOY 90 E PORT A 0950            81 84  100/  6/  8 1017.1R         3/ 5   2/ 5
BUOY 45 SE BAFFI 0850            82     130/ 14/ 17 1015.3          3/ 5   2/ 7
BUOY 200 E PT IS 0950            81 83  130/  6/  8 1016.1R         3/ 6   3/ 6
BUOY 15 E GALVES 0850            82 84   80/ 10/ 12 1017.9          2/ 4   2/ 6
$$




USA.gov is the U.S. government's official web portal to all federal, state and local government web resources and services.